Regional Weather Roundup
Issued by NWS

Home | Current Version | Previous Version | Graphics & Text | Print | Product List | Glossary On
Versions: 1 2 3 4 5 6 7 8 9 10 11 12 13 14 15 16 17 18 19 20 21 22 23 24 25 26 27
000
ASUS45 KBOU 180507
RWRCO

WEATHER ROUNDUP FOR COLORADO
NATIONAL WEATHER SERVICE DENVER/BOULDER CO
1100 PM MDT TUE OCT 17 2017

NOTE: "FAIR" INDICATES FEW OR NO CLOUDS BELOW 12000 FEET WITH NO
SIGNIFICANT WEATHER AND/OR OBSTRUCTIONS TO VISIBILITY.

COZ001>005-013-030-031-180600-
...NORTHWEST COLORADO...

CITY           SKY/WX    TMP DP  RH WIND       PRES   REMARKS
CRAIG          FAIR      33  20  58 CALM      30.24R
HAYDEN         FAIR      42  15  33 E10       30.26R
MEEKER         FAIR      38  18  44 E9        30.25S
RABBIT EARS PA FAIR      39   9  28 W8        30.42S
STEAMBOAT SPGS FAIR      39  15  37 CALM      30.26S
WALDEN         FAIR      34  12  40 S6        30.31S WCI  29
$$

COZ006>008-011-180600-
...WEST CENTRAL VALLEYS...

CITY           SKY/WX    TMP DP  RH WIND       PRES   REMARKS
GRAND JUNCTION FAIR      49  14  24 SE5       30.20R
MONTROSE       FAIR      43  16  33 S9        30.27R
EAGLE          FAIR      39  15  37 E6        30.30R
RIFLE          FAIR      42  19  39 CALM      30.25R
DELTA          FAIR      45  15  29 E6        30.24S
NUCLA          FAIR      46   1  15 E12       30.29R
$$

COZ017>023-064>068-180600-
...SOUTHWEST COLORADO...

CITY           SKY/WX    TMP DP  RH WIND       PRES   REMARKS
DURANGO        FAIR      41  15  35 N9        30.30R
CORTEZ         FAIR      35  13  40 E3        30.27R
PAGOSA SPRINGS FAIR      39  13  34 CALM      30.36S
TELLURIDE      FAIR      43   5  20 SE6       30.44
WOLF CREEK PAS FAIR      36   9  32 SW13      30.60F
$$

COZ009-010-012-014-032>034-037-058>063-180600-
...CENTRAL COLORADO...

CITY           SKY/WX    TMP DP  RH WIND       PRES   REMARKS
ASPEN          FAIR      36  15  42 S7        30.33S
BUENA VISTA    FAIR      41  11  29 CALM      30.32S
COPPER MTN     FAIR      45  -6  12 S5        30.53F
BERTHOUD PASS  FAIR      36  28  75 W32G43    30.51F
COTTONWOOD PAS FAIR      54  -4   9 SW7       30.41S
GUNNISON       FAIR      33  14  45 N3        30.37R
KREMMLING      FAIR      37  19  48 CALM      30.31S
LEADVILLE      FAIR      29   6  38 CALM      30.41S
MONARCH PASS   FAIR      37   0  20 W23       30.64S
SALIDA         NOT AVBL
SUNLIGHT       FAIR      39   3  22 SW9       30.50F
WILKERSON PASS FAIR      45  -2  14 W7        30.50F
$$

COZ069>075-180600-
...SAN LUIS VALLEY/SANGRE DE CRISTO MOUNTAINS...

CITY           SKY/WX    TMP DP  RH WIND       PRES   REMARKS
ALAMOSA        FAIR      34  16  47 CALM      30.31R
DEL NORTE      FAIR      44  16  32 W12       30.34S
LA VETA PASS   FAIR      45  10  24 SW24G33   30.53S
SAGUACHE       FAIR      39   9  28 NW12      30.34R
$$

COZ035-036-038>040-180600-
...NORTHERN COLORADO FRONT RANGE...

CITY           SKY/WX    TMP DP  RH WIND       PRES   REMARKS
DENVER INTL AP FAIR      53  19  26 SW14      30.09F
DMNS CITY PARK   N/A     53  20  27 SE7       30.10S
AURORA         NOT AVBL
FRONT RANGE AP FAIR      57  21  24 S7G18     30.10F
ERIE MUNI ARPT FAIR      54  19  25 SW7       30.12F
BOULDER MUN AP FAIR      57  19  23 S6        30.08S
CENTENNIAL     FAIR      51  20  29 SE8       30.12F
BROOMFIELD     FAIR      57  18  21 CALM      30.11F
FORT COLLINS   FAIR      47  31  53 N5        30.06F
LONGMONT       FAIR      47  29  49 CALM      30.08F
$$

COZ041-046-047-076>085-087-088-180600-
...PIKES PEAK/PALMER DIVIDE AND SOUTHERN FOOTHILLS...

CITY           SKY/WX    TMP DP  RH WIND       PRES   REMARKS
COLO. SPRINGS  FAIR      47  20  34 E3        30.19F
A. F. ACADEMY  FAIR      38  19  46 N10       30.20F
SCHRIEVER AFB  FAIR      49  19  30 W3        30.19F
CHEYENNE MTN   FAIR      55   9  16 CALM      30.17F
ELLICOTT       FAIR     N/A N/A N/A CALM      30.17S
FALCON         FAIR      45  17  32 W7        30.23F
FORT CARSON    FAIR      48  19  31 NW8       30.16F
LIMON          FAIR      35  27  72 N9        30.13S WCI  28
MONUMENT HILL  FAIR      48  16  27 SW10      30.23S
CANON CITY     CLEAR     50  19  29 W9        30.15S
WALSENBURG     NOT AVBL
TRINIDAD       FAIR      49  24  37 W9        30.15S
$$

COZ042>045-048>051-090-091-180600-
...NORTHEAST COLORADO...

CITY           SKY/WX    TMP DP  RH WIND       PRES   REMARKS
GREELEY ARPT   FAIR      40  31  70 CALM      30.06S
AKRON          FAIR      56  20  24 SW14      30.04F
BURLINGTON     FAIR      51  29  42 S13       30.06F
WRAY           FAIR      48  27  43 W6        30.01F
YUMA           NOT AVBL
STERLING       FAIR      41  27  56 CALM      30.01S
HOLYOKE        FAIR      52  30  43 SW5       30.01S
FORT MORGAN    FAIR      48  16  27 SW7       30.04F
$$

COZ086-089-092>099-180600-
...SOUTHEAST COLORADO...

CITY           SKY/WX    TMP DP  RH WIND       PRES   REMARKS
PUEBLO         FAIR      45  25  45 W5        30.11S
LA JUNTA       FAIR      50  30  46 CALM      30.07F
LAMAR          FAIR      42  31  64 W5        30.04S
SPRINGFIELD      N/A     41  34  76 W3        30.08F
$$




USA.gov is the U.S. government's official web portal to all federal, state and local government web resources and services.